{"data":{"norad_id":51870,"intl_designator":"2022-022U","name":"STARLINK-3591","alt_names":[],"object_type":"PAYLOAD","status":"ACTIVE","operator":null,"country":"US","launch_date":"2022-03-03","launch_site_code":"AFETR","launch_vehicle":null,"mission":null,"orbit_class":"UNKNOWN","rcs_meters":null,"size_class":null,"mass_kg":null,"dimensions":null,"purposes":["comms"],"wikipedia_slug":null,"has_3d_model":false,"image_url":null,"decayed_at":null,"tle_current":{"epoch":"2026-05-25T01:35:44.424096Z","epoch_age_seconds":70119,"freshness":"FRESH","line1":"1 51870U 22022U   26145.06648639  .00000755  00000+0  65544-4 0  9993","line2":"2 51870  53.2148  26.2520 0001421  87.1441 272.9713 15.08840091234697","mean_motion":15.08840091,"eccentricity":0.0001421,"inclination_deg":53.2148,"raan_deg":26.252,"arg_perigee_deg":87.1441,"mean_anomaly_deg":272.9713,"bstar":6.5544e-5,"rev_number":23469,"period_min":95.437548921809,"perigee_km":538.76008004978,"apogee_km":540.72614157727,"semimajor_km":6917.8801108135,"source":"CELESTRAK","updated_at":"2026-05-25T13:38:16.981210Z"}}}